Location: Boncourt
(49.6160°N, 3.9448°E)
Time: 07:07:29
(UTC+00:00)

Cosmos 1570 Rocket - Pass Details

Date: 09 February 2023
Orbit: 763 x 787 km, 74.1° (Epoch: 30 March)

Event Time Altitude Azimuth Distance (km) Brightness Sun altitude
Rises 18:43:22 0° 335° (NNW) 3,292 7.6 -18.3°
Reaches altitude 10° 18:45:47 10° 334° (NNW) 2,358 6.8 -18.7°
Maximum altitude 18:51:08 76° 249° (WSW) 814 4.2 -19.5°
Drops below altitude 10° 18:56:25 10° 165° (SSE) 2,330 6.3 -20.4°
Sets 18:58:47 0° 164° (SSE) 3,251 7.1 -20.8°
